Year,Month,Day,Hour,Minute,Value (Times are PST for temperature in C)
2015,12,04,00,00,8.60
2015,12,04,00,01,8.60
2015,12,04,00,02,8.60
2015,12,04,00,03,8.60
2015,12,04,00,04,8.60
2015,12,04,00,05,8.50
2015,12,04,00,06,8.50
2015,12,04,00,07,8.50
2015,12,04,00,08,8.50
2015,12,04,00,09,8.50
2015,12,04,00,10,8.50
2015,12,04,00,11,8.50
2015,12,04,00,12,8.50
2015,12,04,00,13,8.50
2015,12,04,00,14,8.50
2015,12,04,00,15,8.50
2015,12,04,00,16,8.40
2015,12,04,00,17,8.40
2015,12,04,00,18,8.40
2015,12,04,00,19,8.40
2015,12,04,00,20,8.40
2015,12,04,00,21,8.40
2015,12,04,00,22,8.40
2015,12,04,00,23,8.40
2015,12,04,00,24,8.40
2015,12,04,00,25,8.40
2015,12,04,00,26,8.40
2015,12,04,00,27,8.40
2015,12,04,00,28,8.30
2015,12,04,00,29,8.30
2015,12,04,00,30,8.30
2015,12,04,00,31,8.30
2015,12,04,00,32,8.30
2015,12,04,00,33,8.30
2015,12,04,00,34,8.30
2015,12,04,00,35,8.30
2015,12,04,00,36,8.30
2015,12,04,00,37,8.30
2015,12,04,00,38,8.20
2015,12,04,00,39,8.20
2015,12,04,00,40,8.20
2015,12,04,00,41,8.20
2015,12,04,00,42,8.20
2015,12,04,00,43,8.20
2015,12,04,00,44,8.20
2015,12,04,00,45,8.20
2015,12,04,00,46,8.20
2015,12,04,00,47,8.20
2015,12,04,00,48,8.20
2015,12,04,00,49,8.20
2015,12,04,00,50,8.20
2015,12,04,00,51,8.20
2015,12,04,00,52,8.10
2015,12,04,00,53,8.10
2015,12,04,00,54,8.10
2015,12,04,00,55,8.10
2015,12,04,00,56,8.10
2015,12,04,00,57,8.10
2015,12,04,00,58,8.10
2015,12,04,00,59,8.10
2015,12,04,01,00,8.10
2015,12,04,01,01,8.10
2015,12,04,01,02,8.10
2015,12,04,01,03,8.00
2015,12,04,01,04,8.00
2015,12,04,01,05,8.00
2015,12,04,01,06,8.00
2015,12,04,01,07,8.00
2015,12,04,01,08,7.90
2015,12,04,01,09,8.00
2015,12,04,01,10,7.90
2015,12,04,01,11,7.90
2015,12,04,01,12,7.90
2015,12,04,01,13,7.90
2015,12,04,01,14,7.90
2015,12,04,01,15,7.90
2015,12,04,01,16,7.90
2015,12,04,01,17,7.90
2015,12,04,01,18,7.90
2015,12,04,01,19,7.90
2015,12,04,01,20,7.90
2015,12,04,01,21,7.90
2015,12,04,01,22,7.90
2015,12,04,01,23,7.90
2015,12,04,01,24,7.90
2015,12,04,01,25,7.90
2015,12,04,01,26,7.90
2015,12,04,01,27,7.80
2015,12,04,01,28,7.80
2015,12,04,01,29,7.70
2015,12,04,01,30,7.70
2015,12,04,01,31,7.60
2015,12,04,01,32,7.60
2015,12,04,01,33,7.60
2015,12,04,01,34,7.60
2015,12,04,01,35,7.70
2015,12,04,01,36,7.70
2015,12,04,01,37,7.70
2015,12,04,01,38,7.70
2015,12,04,01,39,7.70
2015,12,04,01,40,7.60
2015,12,04,01,41,7.60
2015,12,04,01,42,7.60
2015,12,04,01,43,7.60
2015,12,04,01,44,7.60
2015,12,04,01,45,7.60
2015,12,04,01,46,7.60
2015,12,04,01,47,7.60
2015,12,04,01,48,7.70
2015,12,04,01,49,7.70
2015,12,04,01,50,7.80
2015,12,04,01,51,7.80
2015,12,04,01,52,7.90
2015,12,04,01,53,7.90
2015,12,04,01,54,8.00
2015,12,04,01,55,8.00
2015,12,04,01,56,8.10
2015,12,04,01,57,8.10
2015,12,04,01,58,8.20
2015,12,04,01,59,8.20
2015,12,04,02,00,8.20
2015,12,04,02,01,8.20
2015,12,04,02,02,8.20
2015,12,04,02,03,8.20
2015,12,04,02,04,8.30
2015,12,04,02,05,8.30
2015,12,04,02,06,8.30
2015,12,04,02,07,8.30
2015,12,04,02,08,8.30
2015,12,04,02,09,8.30
2015,12,04,02,10,8.30
2015,12,04,02,11,8.30
2015,12,04,02,12,8.30
2015,12,04,02,13,8.30
2015,12,04,02,14,8.40
2015,12,04,02,15,8.40
2015,12,04,02,16,8.40
2015,12,04,02,17,8.40
2015,12,04,02,18,8.40
2015,12,04,02,19,8.40
2015,12,04,02,20,8.40
2015,12,04,02,21,8.50
2015,12,04,02,22,8.50
2015,12,04,02,23,8.50
2015,12,04,02,24,8.50
2015,12,04,02,25,8.50
2015,12,04,02,26,8.50
2015,12,04,02,27,8.50
2015,12,04,02,28,8.50
2015,12,04,02,29,8.40
2015,12,04,02,30,8.40
2015,12,04,02,31,8.40
2015,12,04,02,32,8.40
2015,12,04,02,33,8.40
2015,12,04,02,34,8.40
2015,12,04,02,35,8.40
2015,12,04,02,36,8.40
2015,12,04,02,37,8.40
2015,12,04,02,38,8.40
2015,12,04,02,39,8.30
2015,12,04,02,40,8.30
2015,12,04,02,41,8.30
2015,12,04,02,42,8.30
2015,12,04,02,43,8.30
2015,12,04,02,44,8.30
2015,12,04,02,45,8.30
2015,12,04,02,46,8.30
2015,12,04,02,47,8.30
2015,12,04,02,48,8.30
2015,12,04,02,49,8.30
2015,12,04,02,50,8.30
2015,12,04,02,51,8.30
2015,12,04,02,52,8.20
2015,12,04,02,53,8.20
2015,12,04,02,54,8.20
2015,12,04,02,55,8.20
2015,12,04,02,56,8.20
2015,12,04,02,57,8.20
2015,12,04,02,58,8.20
2015,12,04,02,59,8.20
2015,12,04,03,00,8.20
2015,12,04,03,01,8.20
2015,12,04,03,02,8.20
2015,12,04,03,03,8.20
2015,12,04,03,04,8.20
2015,12,04,03,05,8.20
2015,12,04,03,06,8.10
2015,12,04,03,07,8.10
2015,12,04,03,08,8.10
2015,12,04,03,09,8.10
2015,12,04,03,10,8.00
2015,12,04,03,11,8.00
2015,12,04,03,12,7.90
2015,12,04,03,13,7.90
2015,12,04,03,14,7.90
2015,12,04,03,15,7.90
2015,12,04,03,16,7.90
2015,12,04,03,17,7.90
2015,12,04,03,18,7.90
2015,12,04,03,19,7.90
2015,12,04,03,20,7.90
2015,12,04,03,21,7.90
2015,12,04,03,22,7.90
2015,12,04,03,23,7.90
2015,12,04,03,24,7.90
2015,12,04,03,25,7.90
2015,12,04,03,26,7.90
2015,12,04,03,27,7.90
2015,12,04,03,28,7.90
2015,12,04,03,29,7.90
2015,12,04,03,30,7.90
2015,12,04,03,31,7.90
2015,12,04,03,32,7.90
2015,12,04,03,33,7.90
2015,12,04,03,34,7.90
2015,12,04,03,35,7.90
2015,12,04,03,36,7.90
2015,12,04,03,37,7.90
2015,12,04,03,38,7.90
2015,12,04,03,39,7.80
2015,12,04,03,40,7.80
2015,12,04,03,41,7.70
2015,12,04,03,42,7.70
2015,12,04,03,43,7.60
2015,12,04,03,44,7.60
2015,12,04,03,45,7.50
2015,12,04,03,46,7.50
2015,12,04,03,47,7.40
2015,12,04,03,48,7.40
2015,12,04,03,49,7.40
2015,12,04,03,50,7.30
2015,12,04,03,51,7.30
2015,12,04,03,52,7.30
2015,12,04,03,53,7.30
2015,12,04,03,54,7.30
2015,12,04,03,55,7.40
2015,12,04,03,56,7.40
2015,12,04,03,57,7.40
2015,12,04,03,58,7.50
2015,12,04,03,59,7.50
2015,12,04,04,00,7.60
2015,12,04,04,01,7.60
2015,12,04,04,02,7.60
2015,12,04,04,03,7.70
2015,12,04,04,04,7.70
2015,12,04,04,05,7.70
2015,12,04,04,06,7.70
2015,12,04,04,07,7.70
2015,12,04,04,08,7.70
2015,12,04,04,09,7.70
2015,12,04,04,10,7.70
2015,12,04,04,11,7.70
2015,12,04,04,12,7.70
2015,12,04,04,13,7.70
2015,12,04,04,14,7.70
2015,12,04,04,15,7.70
2015,12,04,04,16,7.70
2015,12,04,04,17,7.70
2015,12,04,04,18,7.80
2015,12,04,04,19,7.80
2015,12,04,04,20,7.80
2015,12,04,04,21,7.80
2015,12,04,04,22,7.80
2015,12,04,04,23,7.80
2015,12,04,04,24,7.80
2015,12,04,04,25,7.80
2015,12,04,04,26,7.80
2015,12,04,04,27,7.80
2015,12,04,04,28,7.80
2015,12,04,04,29,7.80
2015,12,04,04,30,7.80
2015,12,04,04,31,7.80
2015,12,04,04,32,7.80
2015,12,04,04,33,7.80
2015,12,04,04,34,7.80
2015,12,04,04,35,7.80
2015,12,04,04,36,7.80
2015,12,04,04,37,7.80
2015,12,04,04,38,7.90
2015,12,04,04,39,7.90
2015,12,04,04,40,7.90
2015,12,04,04,41,7.90
2015,12,04,04,42,7.90
2015,12,04,04,43,7.90
2015,12,04,04,44,7.90
2015,12,04,04,45,7.90
2015,12,04,04,46,7.90
2015,12,04,04,47,7.90
2015,12,04,04,48,7.90
2015,12,04,04,49,7.90
2015,12,04,04,50,7.90
2015,12,04,04,51,7.90
2015,12,04,04,52,7.90
2015,12,04,04,53,7.80
2015,12,04,04,54,7.80
2015,12,04,04,55,7.80
2015,12,04,04,56,7.70
2015,12,04,04,57,7.70
2015,12,04,04,58,7.70
2015,12,04,04,59,7.70
2015,12,04,05,00,7.60
2015,12,04,05,01,7.60
2015,12,04,05,02,7.60
2015,12,04,05,03,7.60
2015,12,04,05,04,7.60
2015,12,04,05,05,7.60
2015,12,04,05,06,7.50
2015,12,04,05,07,7.50
2015,12,04,05,08,7.50
2015,12,04,05,09,7.40
2015,12,04,05,10,7.40
2015,12,04,05,11,7.40
2015,12,04,05,12,7.40
2015,12,04,05,13,7.30
2015,12,04,05,14,7.30
2015,12,04,05,15,7.30
2015,12,04,05,16,7.30
2015,12,04,05,17,7.30
2015,12,04,05,18,7.30
2015,12,04,05,19,7.30
2015,12,04,05,20,7.30
2015,12,04,05,21,7.30
2015,12,04,05,22,7.30
2015,12,04,05,23,7.30
2015,12,04,05,24,7.30
2015,12,04,05,25,7.30
2015,12,04,05,26,7.30
2015,12,04,08,32,7.10
2015,12,04,08,33,7.10
2015,12,04,08,34,7.10
2015,12,04,08,35,7.10
2015,12,04,08,36,7.10
2015,12,04,08,37,7.10
2015,12,04,08,38,7.10
2015,12,04,08,39,7.10
2015,12,04,08,40,7.10
2015,12,04,08,41,7.10
2015,12,04,08,42,7.10
2015,12,04,08,43,7.10
2015,12,04,08,44,7.10
2015,12,04,08,45,7.10
2015,12,04,08,46,7.10
2015,12,04,08,47,7.10
2015,12,04,08,48,7.10
2015,12,04,08,49,7.10
2015,12,04,08,50,7.10
2015,12,04,08,51,7.10
2015,12,04,08,52,7.10
2015,12,04,08,53,7.10
2015,12,04,08,54,7.10
2015,12,04,08,55,7.10
2015,12,04,08,56,7.10
2015,12,04,08,57,7.10
2015,12,04,08,58,7.10
2015,12,04,08,59,7.10
2015,12,04,09,00,7.10
2015,12,04,09,01,7.10
2015,12,04,09,02,7.10
2015,12,04,09,03,7.10
2015,12,04,09,04,7.10
2015,12,04,09,05,7.10
2015,12,04,09,06,7.10
2015,12,04,09,07,7.10
2015,12,04,09,08,7.10
2015,12,04,09,09,7.10
2015,12,04,09,10,7.10
2015,12,04,09,11,7.10
2015,12,04,09,12,7.10
2015,12,04,09,13,7.10
2015,12,04,09,14,7.10
2015,12,04,09,15,7.10
2015,12,04,09,16,7.10
2015,12,04,09,17,7.10
2015,12,04,09,18,7.10
2015,12,04,09,19,7.10
2015,12,04,09,20,7.10
2015,12,04,09,21,7.10
2015,12,04,09,22,7.10
2015,12,04,09,23,7.10
2015,12,04,09,24,7.10
2015,12,04,09,25,7.10
2015,12,04,09,26,7.10
2015,12,04,09,27,7.10
2015,12,04,09,28,7.10
2015,12,04,09,29,7.10
2015,12,04,09,30,7.00
2015,12,04,09,31,7.00
2015,12,04,09,32,7.00
2015,12,04,09,33,7.10
2015,12,04,09,34,7.10
2015,12,04,09,35,7.10
2015,12,04,09,36,7.10
2015,12,04,09,37,7.10
2015,12,04,09,38,7.20
2015,12,04,09,39,7.20
2015,12,04,09,40,7.30
2015,12,04,09,41,7.40
2015,12,04,09,42,7.40
2015,12,04,09,43,7.50
2015,12,04,09,44,7.60
2015,12,04,09,45,7.70
2015,12,04,09,46,7.70
2015,12,04,09,47,7.80
2015,12,04,09,48,7.80
2015,12,04,09,49,7.90
2015,12,04,09,50,8.00
2015,12,04,09,51,8.00
2015,12,04,09,52,8.10
2015,12,04,09,53,8.10
2015,12,04,09,54,8.20
2015,12,04,09,55,8.20
2015,12,04,09,56,8.20
2015,12,04,09,57,8.30
2015,12,04,09,58,8.30
2015,12,04,09,59,8.30
2015,12,04,10,00,8.30
2015,12,04,10,01,8.30
2015,12,04,10,02,8.30
2015,12,04,10,03,8.30
2015,12,04,10,04,8.30
2015,12,04,10,05,8.20
2015,12,04,10,06,8.20
2015,12,04,10,07,8.20
2015,12,04,10,08,8.20
2015,12,04,10,09,8.10
2015,12,04,10,10,8.10
2015,12,04,10,11,8.10
2015,12,04,10,12,8.00
2015,12,04,10,13,8.00
2015,12,04,10,14,8.00
2015,12,04,10,15,7.90
2015,12,04,10,16,7.90
2015,12,04,10,17,7.80
2015,12,04,10,18,7.80
2015,12,04,10,19,7.80
2015,12,04,10,20,7.80
2015,12,04,10,21,7.80
2015,12,04,10,22,7.80
2015,12,04,10,23,7.80
2015,12,04,10,24,7.70
2015,12,04,10,25,7.70
2015,12,04,10,26,7.70
2015,12,04,10,27,7.70
2015,12,04,10,28,7.60
2015,12,04,10,29,7.60
2015,12,04,10,30,7.60
2015,12,04,10,31,7.60
2015,12,04,10,32,7.60
2015,12,04,10,33,7.60
2015,12,04,10,34,7.60
2015,12,04,10,35,7.60
2015,12,04,10,36,7.50
2015,12,04,10,37,7.50
2015,12,04,10,38,7.50
2015,12,04,10,39,7.50
2015,12,04,10,40,7.50
2015,12,04,10,41,7.50
2015,12,04,10,42,7.50
2015,12,04,10,43,7.50
2015,12,04,10,44,7.50
2015,12,04,10,45,7.50
2015,12,04,10,46,7.50
2015,12,04,10,47,7.50
2015,12,04,10,48,7.50
2015,12,04,10,49,7.50
2015,12,04,10,50,7.60
2015,12,04,10,51,7.60
2015,12,04,10,52,7.60
2015,12,04,10,53,7.60
2015,12,04,10,54,7.60
2015,12,04,10,55,7.60
2015,12,04,10,56,7.70
2015,12,04,10,57,7.70
2015,12,04,10,58,7.70
2015,12,04,10,59,7.80
2015,12,04,11,00,7.80
2015,12,04,11,01,7.90
2015,12,04,11,02,8.00
2015,12,04,11,03,8.00
2015,12,04,11,04,8.00
2015,12,04,11,05,8.10
2015,12,04,11,06,8.10
2015,12,04,11,07,8.20
2015,12,04,11,08,8.20
2015,12,04,11,09,8.20
2015,12,04,11,10,8.30
2015,12,04,11,11,8.30
2015,12,04,11,12,8.30
2015,12,04,11,13,8.30
2015,12,04,11,14,8.40
2015,12,04,11,15,8.40
2015,12,04,11,16,8.40
2015,12,04,11,17,8.50
2015,12,04,11,18,8.50
2015,12,04,11,19,8.60
2015,12,04,11,20,8.50
2015,12,04,11,21,8.50
2015,12,04,11,22,8.50
2015,12,04,11,23,8.60
2015,12,04,11,24,8.60
2015,12,04,11,25,8.60
2015,12,04,11,26,8.60
2015,12,04,11,27,8.70
2015,12,04,11,28,8.70
2015,12,04,11,29,8.80
2015,12,04,11,30,8.80
2015,12,04,11,31,8.90
2015,12,04,11,32,9.00
2015,12,04,11,33,9.00
2015,12,04,11,34,9.10
2015,12,04,11,35,9.20
2015,12,04,11,36,9.30
2015,12,04,11,37,9.40
2015,12,04,11,38,9.50
2015,12,04,11,39,9.60
2015,12,04,11,40,9.60
2015,12,04,11,41,9.60
2015,12,04,11,42,9.60
2015,12,04,11,43,9.60
2015,12,04,11,44,9.60
2015,12,04,11,45,9.70
2015,12,04,11,46,9.70
2015,12,04,11,47,9.70
2015,12,04,11,48,9.60
2015,12,04,11,49,9.60
2015,12,04,11,50,9.60
2015,12,04,11,51,9.60
2015,12,04,11,52,9.70
2015,12,04,11,53,9.70
2015,12,04,11,54,9.70
2015,12,04,11,55,9.70
2015,12,04,11,56,9.70
2015,12,04,11,57,9.70
2015,12,04,11,58,9.70
2015,12,04,11,59,9.70
2015,12,04,12,00,9.70
2015,12,04,12,01,9.70
2015,12,04,12,02,9.70
2015,12,04,12,03,9.70
2015,12,04,12,04,9.70
2015,12,04,12,05,9.60
2015,12,04,12,06,9.60
2015,12,04,12,07,9.60
2015,12,04,12,08,9.60
2015,12,04,12,09,9.60
2015,12,04,12,10,9.60
2015,12,04,12,11,9.60
2015,12,04,12,12,9.60
2015,12,04,12,13,9.70
2015,12,04,12,14,9.70
2015,12,04,12,15,9.70
2015,12,04,12,16,9.70
2015,12,04,12,17,9.70
2015,12,04,12,18,9.70
2015,12,04,12,19,9.70
2015,12,04,12,20,9.70
2015,12,04,12,21,9.70
2015,12,04,12,22,9.70
2015,12,04,12,23,9.70
2015,12,04,12,24,9.70
2015,12,04,12,25,9.70
2015,12,04,12,26,9.70
2015,12,04,12,27,9.70
2015,12,04,12,28,9.60
2015,12,04,12,29,9.60
2015,12,04,12,30,9.70
2015,12,04,12,31,9.70
2015,12,04,12,32,9.70
2015,12,04,12,33,9.70
2015,12,04,12,34,9.70
2015,12,04,12,35,9.60
2015,12,04,12,36,9.60
2015,12,04,12,37,9.60
2015,12,04,12,38,9.60
2015,12,04,12,39,9.60
2015,12,04,12,40,9.60
2015,12,04,12,41,9.70
2015,12,04,12,42,9.70
2015,12,04,12,43,9.70
2015,12,04,12,44,9.70
2015,12,04,12,45,9.60
2015,12,04,12,46,9.50
2015,12,04,12,47,9.40
2015,12,04,12,48,9.40
2015,12,04,12,49,9.30
2015,12,04,12,50,9.20
2015,12,04,12,51,9.10
2015,12,04,12,52,9.10
2015,12,04,12,53,9.00
2015,12,04,12,54,9.00
2015,12,04,12,55,8.90
2015,12,04,12,56,8.90
2015,12,04,12,57,8.90
2015,12,04,12,58,8.90
2015,12,04,12,59,8.90
2015,12,04,13,00,8.90
2015,12,04,13,01,8.90
2015,12,04,13,02,8.90
2015,12,04,13,03,8.90
2015,12,04,13,04,8.90
2015,12,04,13,05,8.90
2015,12,04,13,06,8.90
2015,12,04,13,07,8.90
2015,12,04,13,08,8.90
2015,12,04,13,09,8.90
2015,12,04,13,10,8.90
2015,12,04,13,11,8.90
2015,12,04,13,12,8.90
2015,12,04,13,13,8.90
2015,12,04,13,14,8.80
2015,12,04,13,15,8.80
2015,12,04,13,16,8.80
2015,12,04,13,17,8.80
2015,12,04,13,18,8.80
2015,12,04,13,19,8.80
2015,12,04,13,20,8.80
2015,12,04,13,21,8.80
2015,12,04,13,22,8.80
2015,12,04,13,23,8.80
2015,12,04,13,24,8.80
2015,12,04,13,25,8.80
2015,12,04,13,26,8.80
2015,12,04,13,27,8.80
2015,12,04,13,28,8.80
2015,12,04,13,29,8.80
2015,12,04,13,30,8.80
2015,12,04,13,31,8.80
2015,12,04,13,32,8.80
2015,12,04,13,33,8.90
2015,12,04,13,34,8.90
2015,12,04,13,35,8.90
2015,12,04,13,36,9.00
2015,12,04,13,37,9.00
2015,12,04,13,38,9.00
2015,12,04,13,39,9.00
2015,12,04,13,40,9.00
2015,12,04,13,41,9.00
2015,12,04,13,42,9.00
2015,12,04,13,43,9.00
2015,12,04,13,44,9.10
2015,12,04,13,45,9.10
2015,12,04,13,46,9.10
2015,12,04,13,47,9.10
2015,12,04,13,48,9.20
2015,12,04,13,49,9.20
2015,12,04,13,50,9.20
2015,12,04,13,51,9.20
2015,12,04,13,52,9.20
2015,12,04,13,53,9.30
2015,12,04,13,54,9.30
2015,12,04,13,55,9.30
2015,12,04,13,56,9.30
2015,12,04,13,57,9.30
2015,12,04,13,58,9.30
2015,12,04,13,59,9.40
2015,12,04,14,00,9.40
2015,12,04,14,01,9.30
2015,12,04,14,02,9.30
2015,12,04,14,03,9.30
2015,12,04,14,04,9.30
2015,12,04,14,05,9.20
2015,12,04,14,06,9.30
2015,12,04,14,07,9.30
2015,12,04,14,08,9.20
2015,12,04,14,09,9.10
2015,12,04,14,10,9.10
2015,12,04,14,11,9.00
2015,12,04,14,12,9.00
2015,12,04,14,13,8.90
2015,12,04,14,14,8.90
2015,12,04,14,15,8.90
2015,12,04,14,16,8.90
2015,12,04,14,17,8.90
2015,12,04,14,18,8.90
2015,12,04,14,19,8.90
2015,12,04,14,20,8.90
2015,12,04,14,21,8.90
2015,12,04,14,22,8.90
2015,12,04,14,23,8.90
2015,12,04,14,24,8.80
2015,12,04,14,25,8.80
2015,12,04,14,26,8.80
2015,12,04,14,27,8.80
2015,12,04,14,28,8.80
2015,12,04,14,29,8.80
2015,12,04,14,30,8.80
2015,12,04,14,31,8.80
2015,12,04,14,32,8.80
2015,12,04,14,33,8.80
2015,12,04,14,34,8.90
2015,12,04,14,35,8.90
2015,12,04,14,36,8.90
2015,12,04,14,37,8.90
2015,12,04,14,38,9.00
2015,12,04,14,39,9.00
2015,12,04,14,40,9.10
2015,12,04,14,41,9.10
2015,12,04,14,42,9.10
2015,12,04,14,43,9.20
2015,12,04,14,44,9.20
2015,12,04,14,45,9.20
2015,12,04,14,46,9.20
2015,12,04,14,47,9.20
2015,12,04,14,48,9.20
2015,12,04,14,49,9.20
2015,12,04,14,50,9.20
2015,12,04,14,51,9.20
2015,12,04,14,52,9.20
2015,12,04,14,53,9.20
2015,12,04,14,54,9.20
2015,12,04,14,55,9.20
2015,12,04,14,56,9.20
2015,12,04,14,57,9.20
2015,12,04,14,58,9.20
2015,12,04,14,59,9.20
2015,12,04,15,00,9.20
2015,12,04,15,01,9.20
2015,12,04,15,02,9.20
2015,12,04,15,03,9.20
2015,12,04,15,04,9.10
2015,12,04,15,05,9.10
2015,12,04,15,06,9.10
2015,12,04,15,07,9.10
2015,12,04,15,08,9.10
2015,12,04,15,09,9.10
2015,12,04,15,10,9.10
2015,12,04,15,11,9.10
2015,12,04,15,12,9.10
2015,12,04,15,13,9.10
2015,12,04,15,14,9.10
2015,12,04,15,15,9.10
2015,12,04,15,16,9.20
2015,12,04,15,17,9.10
2015,12,04,15,18,9.20
2015,12,04,15,19,9.20
2015,12,04,15,20,9.20
2015,12,04,15,21,9.20
2015,12,04,15,22,9.20
2015,12,04,15,23,9.20
2015,12,04,15,24,9.20
2015,12,04,15,25,9.10
2015,12,04,15,26,9.10
2015,12,04,15,27,9.10
2015,12,04,15,28,9.10
2015,12,04,15,29,9.00
2015,12,04,15,30,9.00
2015,12,04,15,31,9.00
2015,12,04,15,32,8.90
2015,12,04,15,33,8.90
2015,12,04,15,34,8.90
2015,12,04,15,35,8.90
2015,12,04,15,36,8.90
2015,12,04,15,37,8.90
2015,12,04,15,38,8.90
2015,12,04,15,39,8.90
2015,12,04,15,40,8.90
2015,12,04,15,41,8.90
2015,12,04,15,42,8.90
2015,12,04,15,43,8.90
2015,12,04,15,44,8.90
2015,12,04,15,45,8.90
2015,12,04,15,46,8.90
2015,12,04,15,47,8.90
2015,12,04,15,48,8.90
2015,12,04,15,49,8.90
2015,12,04,15,50,8.90
2015,12,04,15,51,8.90
2015,12,04,15,52,8.90
2015,12,04,15,53,8.90
2015,12,04,15,54,8.90
2015,12,04,15,55,8.90
2015,12,04,15,56,8.90
2015,12,04,15,57,8.80
2015,12,04,15,58,8.80
2015,12,04,15,59,8.80
2015,12,04,16,00,8.80
2015,12,04,16,01,8.80
2015,12,04,16,02,8.80
2015,12,04,16,03,8.80
2015,12,04,16,04,8.80
2015,12,04,16,05,8.80
2015,12,04,16,06,8.80
2015,12,04,16,07,8.80
2015,12,04,16,08,8.80
2015,12,04,16,09,8.80
2015,12,04,16,10,8.80
2015,12,04,16,11,8.80
2015,12,04,16,12,8.80
2015,12,04,16,13,8.80
2015,12,04,16,14,8.80
2015,12,04,16,15,8.70
2015,12,04,16,16,8.70
2015,12,04,16,17,8.70
2015,12,04,16,18,8.70
2015,12,04,16,19,8.70
2015,12,04,16,20,8.70
2015,12,04,16,21,8.70
2015,12,04,16,22,8.70
2015,12,04,16,23,8.70
2015,12,04,16,24,8.70
2015,12,04,16,25,8.70
2015,12,04,16,26,8.70
2015,12,04,16,27,8.70
2015,12,04,16,28,8.70
2015,12,04,16,29,8.70
2015,12,04,16,30,8.70
2015,12,04,16,31,8.60
2015,12,04,16,32,8.60
2015,12,04,16,33,8.60
2015,12,04,16,34,8.60
2015,12,04,16,35,8.60
2015,12,04,16,36,8.60
2015,12,04,16,37,8.60
2015,12,04,16,38,8.60
2015,12,04,16,39,8.50
2015,12,04,16,40,8.50
2015,12,04,16,41,8.50
2015,12,04,16,42,8.50
2015,12,04,16,43,8.50
2015,12,04,16,44,8.50
2015,12,04,16,45,8.50
2015,12,04,16,46,8.40
2015,12,04,16,47,8.40
2015,12,04,16,48,8.40
2015,12,04,16,49,8.40
2015,12,04,16,50,8.40
2015,12,04,16,51,8.40
2015,12,04,16,52,8.30
2015,12,04,16,53,8.30
2015,12,04,16,54,8.30
2015,12,04,16,55,8.20
2015,12,04,16,56,8.20
2015,12,04,16,57,8.20
2015,12,04,16,58,8.20
2015,12,04,16,59,8.20
2015,12,04,17,00,8.20
2015,12,04,17,01,8.20
2015,12,04,17,02,8.10
2015,12,04,17,03,8.10
2015,12,04,17,04,8.10
2015,12,04,17,05,8.10
2015,12,04,17,06,8.10
2015,12,04,17,07,8.10
2015,12,04,17,08,8.10
2015,12,04,17,09,8.20
2015,12,04,17,10,8.20
2015,12,04,17,11,8.20
2015,12,04,17,12,8.20
2015,12,04,17,13,8.30
2015,12,04,17,14,8.30
2015,12,04,17,15,8.30
2015,12,04,17,16,8.30
2015,12,04,17,17,8.30
2015,12,04,17,18,8.30
2015,12,04,17,19,8.30
2015,12,04,17,20,8.30
2015,12,04,17,21,8.20
2015,12,04,17,22,8.20
2015,12,04,17,23,8.20
2015,12,04,17,24,8.20
2015,12,04,17,25,8.20
2015,12,04,17,26,8.20
2015,12,04,17,27,8.20
2015,12,04,17,28,8.20
2015,12,04,17,29,8.20
2015,12,04,17,30,8.20
2015,12,04,17,31,8.20
2015,12,04,17,32,8.20
2015,12,04,17,33,8.20
2015,12,04,17,34,8.20
2015,12,04,17,35,8.20
2015,12,04,17,36,8.20
2015,12,04,17,37,8.20
2015,12,04,17,38,8.20
2015,12,04,17,39,8.10
2015,12,04,17,40,8.10
2015,12,04,17,41,8.10
2015,12,04,17,42,8.10
2015,12,04,17,43,8.10
2015,12,04,17,44,8.10
2015,12,04,17,45,8.00
2015,12,04,17,46,8.00
2015,12,04,17,47,8.00
2015,12,04,17,48,8.00
2015,12,04,17,49,8.00
2015,12,04,17,50,8.00
2015,12,04,17,51,8.00
2015,12,04,17,52,8.00
2015,12,04,17,53,8.00
2015,12,04,17,54,8.00
2015,12,04,17,55,8.00
2015,12,04,17,56,8.00
2015,12,04,17,57,8.00
2015,12,04,17,58,8.00
2015,12,04,17,59,8.00
2015,12,04,18,00,7.90
2015,12,04,18,01,7.90
2015,12,04,18,02,7.90
2015,12,04,18,03,7.90
2015,12,04,18,04,7.90
2015,12,04,18,05,7.80
2015,12,04,18,06,7.80
2015,12,04,18,07,7.80
2015,12,04,18,08,7.80
2015,12,04,18,09,7.80
2015,12,04,18,10,7.80
2015,12,04,18,11,7.80
2015,12,04,18,12,7.80
2015,12,04,18,13,7.80
2015,12,04,18,14,7.80
2015,12,04,18,15,7.80
2015,12,04,18,16,7.70
2015,12,04,18,17,7.70
2015,12,04,18,18,7.70
2015,12,04,18,19,7.60
2015,12,04,18,20,7.60
2015,12,04,18,21,7.60
2015,12,04,18,22,7.50
2015,12,04,18,23,7.50
2015,12,04,18,24,7.50
2015,12,04,18,25,7.40
2015,12,04,18,26,7.40
2015,12,04,18,27,7.40
2015,12,04,18,28,7.40
2015,12,04,18,29,7.40
2015,12,04,18,30,7.50
2015,12,04,18,31,7.50
2015,12,04,18,32,7.50
2015,12,04,18,33,7.50
2015,12,04,18,34,7.50
2015,12,04,18,35,7.50
2015,12,04,18,36,7.60
2015,12,04,18,37,7.60
2015,12,04,18,38,7.60
2015,12,04,18,39,7.60
2015,12,04,18,40,7.60
2015,12,04,18,41,7.70
2015,12,04,18,42,7.70
2015,12,04,18,43,7.70
2015,12,04,18,44,7.70
2015,12,04,18,45,7.60
2015,12,04,18,46,7.60
2015,12,04,18,47,7.60
2015,12,04,18,48,7.60
2015,12,04,18,49,7.50
2015,12,04,18,50,7.50
2015,12,04,18,51,7.50
2015,12,04,18,52,7.50
2015,12,04,18,53,7.50
2015,12,04,18,54,7.50
2015,12,04,18,55,7.50
2015,12,04,18,56,7.60
2015,12,04,18,57,7.60
2015,12,04,18,58,7.60
2015,12,04,18,59,7.60
2015,12,04,19,00,7.60
2015,12,04,19,01,7.60
2015,12,04,19,02,7.60
2015,12,04,19,03,7.60
2015,12,04,19,04,7.60
2015,12,04,19,05,7.60
2015,12,04,19,06,7.70
2015,12,04,19,07,7.70
2015,12,04,19,08,7.70
2015,12,04,19,09,7.70
2015,12,04,19,10,7.70
2015,12,04,19,11,7.70
2015,12,04,19,12,7.70
2015,12,04,19,13,7.70
2015,12,04,19,14,7.70
2015,12,04,19,15,7.70
2015,12,04,19,16,7.70
2015,12,04,19,17,7.70
2015,12,04,19,18,7.70
2015,12,04,19,19,7.70
2015,12,04,19,20,7.70
2015,12,04,19,21,7.70
2015,12,04,19,22,7.70
2015,12,04,19,23,7.70
2015,12,04,19,24,7.70
2015,12,04,19,25,7.70
2015,12,04,19,26,7.70
2015,12,04,19,27,7.70
2015,12,04,19,28,7.70
2015,12,04,19,29,7.70
2015,12,04,19,30,7.70
2015,12,04,19,31,7.70
2015,12,04,19,32,7.60
2015,12,04,19,33,7.60
2015,12,04,19,34,7.60
2015,12,04,19,35,7.60
2015,12,04,19,36,7.60
2015,12,04,19,37,7.50
2015,12,04,19,38,7.50
2015,12,04,19,39,7.50
2015,12,04,19,40,7.50
2015,12,04,19,41,7.50
2015,12,04,19,42,7.50
2015,12,04,19,43,7.50
2015,12,04,19,44,7.50
2015,12,04,19,45,7.50
2015,12,04,19,46,7.50
2015,12,04,19,47,7.50
2015,12,04,19,48,7.50
2015,12,04,19,49,7.50
2015,12,04,19,50,7.50
2015,12,04,19,51,7.50
2015,12,04,19,52,7.50
2015,12,04,19,53,7.50
2015,12,04,19,54,7.50
2015,12,04,19,55,7.50
2015,12,04,19,56,7.50
2015,12,04,19,57,7.50
2015,12,04,19,58,7.50
2015,12,04,19,59,7.50
2015,12,04,20,00,7.50
2015,12,04,20,01,7.50
2015,12,04,20,02,7.50
2015,12,04,20,03,7.50
2015,12,04,20,04,7.50
2015,12,04,20,05,7.60
2015,12,04,20,06,7.50
2015,12,04,20,07,7.50
2015,12,04,20,08,7.50
2015,12,04,20,09,7.50
2015,12,04,20,10,7.60
2015,12,04,20,11,7.60
2015,12,04,20,12,7.60
2015,12,04,20,13,7.60
2015,12,04,20,14,7.60
2015,12,04,20,15,7.50
2015,12,04,20,16,7.50
2015,12,04,20,17,7.50
2015,12,04,20,18,7.50
2015,12,04,20,19,7.50
2015,12,04,20,20,7.50
2015,12,04,20,21,7.50
2015,12,04,20,22,7.50
2015,12,04,20,23,7.50
2015,12,04,20,24,7.50
2015,12,04,20,25,7.50
2015,12,04,20,26,7.50
2015,12,04,20,27,7.50
2015,12,04,20,28,7.50
2015,12,04,20,29,7.40
2015,12,04,20,30,7.40
2015,12,04,20,31,7.40
2015,12,04,20,32,7.40
2015,12,04,20,33,7.40
2015,12,04,20,34,7.40
2015,12,04,20,35,7.40
2015,12,04,20,36,7.40
2015,12,04,20,37,7.40
2015,12,04,20,38,7.40
2015,12,04,20,39,7.40
2015,12,04,20,40,7.40
2015,12,04,20,41,7.40
2015,12,04,20,42,7.40
2015,12,04,20,43,7.40
2015,12,04,20,44,7.40
2015,12,04,20,45,7.40
2015,12,04,20,46,7.40
2015,12,04,20,47,7.40
2015,12,04,20,48,7.40
2015,12,04,20,49,7.40
2015,12,04,20,50,7.40
2015,12,04,20,51,7.40
2015,12,04,20,52,7.40
2015,12,04,20,53,7.40
2015,12,04,20,54,7.30
2015,12,04,20,55,7.30
2015,12,04,20,56,7.30
2015,12,04,20,57,7.30
2015,12,04,20,58,7.30
2015,12,04,20,59,7.30
2015,12,04,21,00,7.30
2015,12,04,21,01,7.30
2015,12,04,21,02,7.30
2015,12,04,21,03,7.30
2015,12,04,21,04,7.30
2015,12,04,21,05,7.30
2015,12,04,21,06,7.30
2015,12,04,21,07,7.30
2015,12,04,21,08,7.30
2015,12,04,21,09,7.30
2015,12,04,21,10,7.30
2015,12,04,21,11,7.30